Showing default

TIMATION 1, 2847

Orbit data source: Space-Track

TIMATION 1, 2847 is a payload satellite owned by NRL (US) in LEO that was launched on Wed, 31 May 1967 UTC via a THOR SLV-2 AGENA D launch vehicle from the Air Force Western Test Range (AFWTR). Payload-class satellites include a variety of spacecraft equipped with specific instruments for various scientific and technological missions. These include communications satellites like Starlink; space stations such as the ISS; scientific satellites like the Hubble; Earth observation satellites from companies like Planet Labs, Umbra, and HawkEye 360; GPS; miniature CubeSats for education and research; and military/defense satellites.

Loading next visibility...
Identifier
2847, 1967-053E
Orbit
LEO
Country
Flag of USUS
Related business
Manufacturer
NRL
Mission
Spacecraft
Bus & Motor
TIMATION, Unknown motor
Mass
39 kg wet, 39 kg dry
Launch date (UTC)
1967-05-31 (58 years ago)
Launch vehicle
THOR SLV-2 AGENA D
Launch site
Air Force Western Test Range (AFWTR)
Object type
Payload
Rocket body
Debris
Shape & HBR
Unknown
Radar Cross Section
Medium (>0.1 m² and <1 m²)

Expand to show TLE details & history
Last TLE update: 5 hours ago

TLE from 5 hours ago
0 TIMATION 1
1  2847U 67053E   25311.76176899  .00000215  00000-0  17388-3 0  9995
2  2847  69.9651 326.8579 0007851 327.9626  32.1005 14.02864695982730
Epoch: 2025-11-07T18:16Z
TLE epoch observation values (Epoch: 2025-11-07T18:16:56.840Z)
Latitude
-0.00002°
Longitude
5.41997°
Altitude
881.38 km
Speed
7.414 km/s
True Right ascension
21h 47m 25s
True Declination
0° 00' 00"
Sunlit
Object was in daylight at epoch
Visualization orbit readout
Latitude
Unknown
Longitude
Unknown
Altitude
Unknown
Speed
Unknown
Apparent Right ascension
Unknown
Apparent Declination
Unknown
Sunlit
N/A
Visualization observer readout
Local Sidereal Time
19:20:57
Azimuth
Unknown
Elevation
Unknown
Doppler factor
Unknown
Orbital elements
Apogee altitude
887.632 km
Perigee altitude
876.232 km
Semi-major axis
7,260.069 km
Eccentricity
0.00079
Inclination
69.9651°
RAAN
326.8579°
Arg. of periapsis
327.9626°
True anomaly
32.14835°
Mean anomaly
32.1005°
Eccentric anomaly
32.12442°
Mean motion
3.50859 °/min
Orbital period
102.61 mins
BSTAR
0.00017388
Loading maneuver chart data...
Computing Atmospheric mass density...
Loading historical data...
Loading historical data...
Loading historical data...
Loading historical data...
Loading historical data...
Loading historical data...
Loading historical data...

Documentation

Showing up to 5 results
|